IW1QLH-13 Weather Reports


Display with metric or nautical units.
time (UTC)temp
F
wind
direction
speed
MPH
gust
MPH
rain 1hr
in
rain 24hr
in
rain mn
in
humidity
%
barometer
mb
20260901131839 89 2.0 6.0 0.00 0.00 0.00 10 1009.8
20260901130828 87 4.0 6.0 0.00 0.00 0.00 11 1009.7
20260901125816 87 4.0 8.0 0.00 0.00 0.00 11 1010.0
20260901124804 86 2.0 7.0 0.00 0.00 0.00 11 1010.1
20260901123752 89 2.0 5.0 0.00 0.00 0.00 11 1010.1
20260901122740 86 2.0 5.0 0.00 0.00 0.00 11 1010.1
20260901121729 89 0.0 6.0 0.00 0.00 0.00 11 1010.1
20260901120714 84 2.0 6.0 0.00 0.00 0.00 11 1010.2
20260901115659 84 6.0 8.0 0.00 0.00 0.00 11 1010.0
20260901114648 84 3.0 7.0 0.00 0.00 0.00 11 1010.0
20260901113636 86 1.0 6.0 0.00 0.00 0.00 11 1009.9
20260901112621 89 4.0 8.0 0.00 0.00 0.00 11 1009.8
20260901111610 91 2.0 8.0 0.00 0.00 0.00 10 1009.7
20260901110559 91 4.0 8.0 0.00 0.00 0.00 11 1009.8
20260901105546 91 3.0 10.0 0.00 0.00 0.00 11 1009.7
20260901104532 91 2.0 9.0 0.00 0.00 0.00 10 1009.7
20260901103520 89 6.0 13.0 0.00 0.00 0.00 11 1009.6
20260901102508 91 2.0 11.0 0.00 0.00 0.00 11 1009.6
20260901101457 89 7.0 9.0 0.00 0.00 0.00 11 1009.6
20260901100445 89 4.0 11.0 0.00 0.00 0.00 11 1009.8
20260901095431 87 5.0 12.0 0.00 0.00 0.00 11 1009.8
20260901094420 87 6.0 13.0 0.00 0.00 0.00 11 1009.8
20260901093405 87 5.0 11.0 0.00 0.00 0.00 11 1009.8
20260901092353 89 5.0 9.0 0.00 0.00 0.00 11 1009.7
20260901091342 89 1.0 9.0 0.00 0.00 0.00 11 1009.8
20260901090330 89 1.0 6.0 0.00 0.00 0.00 11 1009.6
20260901085318 87 1.0 6.0 0.00 0.00 0.00 11 1009.5
20260901084307 91 0.0 3.0 0.00 0.00 0.00 11 1009.5
20260901083256 84 0.0 2.0 0.00 0.00 0.00 11 1009.4
20260901082245 84 1.0 3.0 0.00 0.00 0.00 11 1009.5
20260901081233 82 2.0 3.0 0.00 0.00 0.00 11 1009.4
20260901080221 86 0.0 2.0 0.00 0.00 0.00 11 1009.4
20260901075209 84 0.0 1.0 0.00 0.00 0.00 11 1009.2
20260901074157 86 0.0 1.0 0.00 0.00 0.00 11 1009.1
20260901072335 82 0.0 1.0 0.00 0.00 0.00 11 1008.9
20260901071324 82 0.0 0.0 0.00 0.00 0.00 11 1008.8
20260901070312 82 0.0 0.0 0.00 0.00 0.00 11 1008.9
20260901065054 80 0.0 0.0 0.00 0.00 0.00 11 1009.0
20260901063939 80 0.0 0.0 0.00 0.00 0.00 11 1008.9
20260901062620 78 0.0 0.0 0.00 0.00 0.00 11 1009.0
20260901061608 75 0.0 0.0 0.00 0.00 0.00 11 1008.8
20260901060556 73 0.0 0.0 0.00 0.00 0.00 11 1008.8
20260901055543 73 0.0 3.0 0.00 0.00 0.00 11 1008.7
20260901054532 73 0.0 1.0 0.00 0.00 0.00 11 1008.5
20260901053521 73 1.0 1.0 0.00 0.00 0.00 11 1008.6
20260901052510 73 0.0 2.0 0.00 0.00 0.00 11 1008.4
20260901051458 73 0.0 0.0 0.00 0.00 0.00 11 1008.3
20260901050447 73 0.0 1.0 0.00 0.00 0.00 11 1008.3
20260901045432 73 1.0 2.0 0.00 0.00 0.00 11 1008.3
20260901044419 71 0.0 2.0 0.00 0.00 0.00 11 1008.1
20260901043408 71 0.0 1.0 0.00 0.00 0.00 11 1008.1
20260901042357 73 0.0 0.0 0.00 0.00 0.00 11 1008.0
20260901041346 73 0.0 2.0 0.00 0.00 0.00 11 1008.1
20260901040334 73 1.0 3.0 0.00 0.00 0.00 11 1008.1
20260901035322 73 0.0 1.0 0.00 0.00 0.00 11 1008.0
20260901034311 73 1.0 3.0 0.00 0.00 0.00 11 1008.2
20260901033300 73 1.0 2.0 0.00 0.00 0.00 11 1008.3
20260901032248 71 0.0 1.0 0.00 0.00 0.00 11 1008.4
20260901031238 71 0.0 1.0 0.00 0.00 0.00 11 1008.3
20260901030227 71 0.0 1.0 0.00 0.00 0.00 11 1008.3
20260901025215 73 0.0 3.0 0.00 0.00 0.00 11 1008.4
20260901024204 73 0.0 2.0 0.00 0.00 0.00 11 1008.3
20260901023153 73 1.0 3.0 0.00 0.00 0.00 11 1008.3
20260901022142 71 1.0 2.0 0.00 0.00 0.00 11 1008.2
20260901021131 71 1.0 4.0 0.00 0.00 0.00 11 1008.2
20260901020120 71 0.0 1.0 0.00 0.00 0.00 11 1008.1
20260901015108 71 0.0 0.0 0.00 0.00 0.00 11 1008.1
20260901014057 71 0.0 0.0 0.00 0.00 0.00 11 1008.1
20260901012944 71 0.0 1.0 0.00 0.00 0.00 11 1008.0
20260901011933 71 0.0 1.0 0.00 0.00 0.00 11 1007.9
20260901010922 71 0.0 1.0 0.00 0.00 0.00 11 1007.9
20260901005910 71 0.0 1.0 0.00 0.00 0.00 11 1007.8
20260901004859 71 0.0 1.0 0.00 0.00 0.00 11 1007.9
20260901003848 71 0.0 1.0 0.00 0.00 0.00 11 1007.8
20260901002837 71 0.0 1.0 0.00 0.00 0.00 11 1007.8
20260901001725 71 0.0 1.0 0.00 0.00 0.00 11 1007.9
20260901000714 71 0.0 1.0 0.00 0.00 0.00 11 1007.9
20260831235657 71 0.0 1.0 0.00 0.00 0.00 11 1007.9
20260831234646 71 0.0 0.0 0.00 0.00 0.00 11 1008.1
20260831221057 73 0.0 0.0 0.00 0.00 0.00 11 1008.1
20260831220046 73 0.0 1.0 0.00 0.00 0.00 11 1008.0
20260831215034 73 0.0 0.0 0.00 0.00 0.00 11 1007.9
20260831214023 73 0.0 0.0 0.00 0.00 0.00 11 1007.9
20260831213012 73 0.0 1.0 0.00 0.00 0.00 11 1007.7
20260831212001 73 0.0 0.0 0.00 0.00 0.00 11 1007.6
20260831210647 75 0.0 0.0 0.00 0.00 0.00 11 1007.6
20260831205130 75 0.0 1.0 0.00 0.00 0.00 11 1007.5
20260831204119 75 0.0 1.0 0.00 0.00 0.00 11 1007.4
20260831203107 75 0.0 0.0 0.00 0.00 0.00 11 1007.3
20260831201348 75 0.0 3.0 0.00 0.00 0.00 11 1007.4
20260831200133 75 0.0 1.0 0.00 0.00 0.00 11 1007.2
20260831195119 75 0.0 1.0 0.00 0.00 0.00 11 1007.2
20260831194107 75 0.0 0.0 0.00 0.00 0.00 11 1007.2
20260831192750 75 0.0 0.0 0.00 0.00 0.00 11 1007.0
20260831191534 77 0.0 0.0 0.00 0.00 0.00 11 1007.1
20260831190320 77 0.0 0.0 0.00 0.00 0.00 11 1007.0
20260831183651 77 0.0 0.0 0.00 0.00 0.00 11 1006.9
20260831182437 77 0.0 1.0 0.00 0.00 0.00 11 1006.9
20260831181426 77 0.0 1.0 0.00 0.00 0.00 11 1006.8
20260831175504 78 0.0 0.0 0.00 0.00 0.00 11 1006.7
20260831174453 78 0.0 3.0 0.00 0.00 0.00 11 1006.7
20260831173435 78 3.0 3.0 0.00 0.00 0.00 11 1006.7
20260831172423 78 0.0 2.0 0.00 0.00 0.00 11 1006.9
20260831171412 80 0.0 3.0 0.00 0.00 0.00 11 1006.8
20260831170401 80 1.0 4.0 0.00 0.00 0.00 11 1006.9
20260831165348 80 2.0 3.0 0.00 0.00 0.00 11 1006.8
20260831164337 80 1.0 3.0 0.00 0.00 0.00 11 1006.8
20260831163325 82 2.0 4.0 0.00 0.00 0.00 11 1006.9
20260831162313 82 1.0 4.0 0.00 0.00 0.00 11 1006.9
20260831161303 80 1.0 5.0 0.00 0.00 0.00 11 1007.1
20260831160251 80 0.0 4.0 0.00 0.00 0.00 11 1007.2
20260831155240 82 2.0 4.0 0.00 0.00 0.00 11 1007.3
20260831154228 82 1.0 4.0 0.00 0.00 0.00 11 1007.5
20260831153217 84 3.0 4.0 0.00 0.00 0.00 11 1007.5
20260831152205 84 0.0 3.0 0.00 0.00 0.00 11 1007.8
20260831151153 84 1.0 7.0 0.00 0.00 0.00 11 1007.7
20260831150140 86 2.0 4.0 0.00 0.00 0.00 11 1007.8
20260831145128 87 0.0 4.0 0.00 0.00 0.00 11 1007.7
20260831144116 86 1.0 8.0 0.00 0.00 0.00 11 1007.8
20260831143104 87 2.0 5.0 0.00 0.00 0.00 11 1007.9
20260831142051 86 2.0 4.0 0.00 0.00 0.00 11 1007.8
20260831141037 87 1.0 3.0 0.00 0.00 0.00 11 1007.9
20260831140024 86 4.0 6.0 0.00 0.00 0.00 11 1007.7
20260831135010 86 1.0 4.0 0.00 0.00 0.00 11 1007.7
20260831133958 86 2.0 4.0 0.00 0.00 0.00 11 1007.8
20260831132940 89 0.0 5.0 0.00 0.00 0.00 10 1007.9